Weather in Santa Barbara

Venezuela     8°59′28″N   71°53′55″W
temp.,
°C
wind,
m/s
gust,
m/s
humid.,
%
clouds,
%
prec.,
mm/h
press.,
hPa
HPBL,
m
17 april, sat
sat1723:00+26nne3585100 0.5 1010126
02:00+24wnw3596100 6.0 1009131
05:00+24wsw2497100 4.8 1009197
08:00+24w128984 4.8 1011202
11:00+29nne226892 0.0 1011716
14:00+33ne125190 0.0 10081761
17:00+31ene556148 0.0 1007748
20:00+27e117778 0.3 100911
18 april, sun
sun1823:00+25nne228398 0.5 101123
02:00+24w2293100 2.3 101032
05:00+24wsw229399 1.5 100928
08:00+25wnw239088 1.5 1011220
11:00+30nw2169100 0.0 1012916
14:00+33nnw3255100 0.0 10091424
17:00+32ne3255100 0.0 10071190
20:00+27e1172100 0.0 100914
19 april, mon
mon1923:00+24nnw1185100 1.6 101215
02:00+24wnw119296 2.9 101015
05:00+23wsw1196100 2.7 101031
08:00+24wsw1192100 3.0 1012122
11:00+29wnw007487 0.0 1013659
14:00+33nnw1252100 0.0 10101355
17:00+32ene6559100 0.0 1008763
20:00+25e1281100 0.9 101011
20 april, tue
tue2023:00+25nnw238699 1.4 101242
02:00+24nw2393100 3.8 101068
05:00+23ssw2296100 0.2 101125
08:00+25wsw1289100 0.2 1012184
11:00+28w2272100 0.0 1013648
14:00+33wnw115364 0.0 10101336
17:00+33ene445337 0.0 10081050
20:00+26e127322 0.1 100911
21 april, wed
wed2123:00+25nne228410 1.2 101132
02:00+24nnw228660 1.5 101033
05:00+22nw118784 0.0 101111
08:00+24w118129 0.1 1012146
11:00+29w116170 0.0 1013826
14:00+33s024822 0.0 10091486
17:00+33e43515 0.0 10071010
20:00+26e127230 0.6 100811